Year,Month,Day,Hour,Minute,Value (Times are PST for temperature in C)
2011,04,23,00,00,4.50
2011,04,23,00,01,4.50
2011,04,23,00,02,4.50
2011,04,23,00,03,4.40
2011,04,23,00,04,4.40
2011,04,23,00,05,4.40
2011,04,23,00,06,4.40
2011,04,23,00,07,4.40
2011,04,23,00,08,4.40
2011,04,23,00,09,4.40
2011,04,23,00,10,4.40
2011,04,23,00,11,4.40
2011,04,23,00,12,4.40
2011,04,23,00,13,4.40
2011,04,23,00,14,4.40
2011,04,23,00,15,4.30
2011,04,23,00,16,4.30
2011,04,23,00,17,4.30
2011,04,23,00,18,4.30
2011,04,23,00,19,4.30
2011,04,23,00,20,4.30
2011,04,23,00,21,4.20
2011,04,23,00,22,4.20
2011,04,23,00,23,4.20
2011,04,23,00,24,4.20
2011,04,23,00,25,4.30
2011,04,23,00,26,4.20
2011,04,23,00,27,4.20
2011,04,23,00,28,4.30
2011,04,23,00,29,4.30
2011,04,23,00,30,4.30
2011,04,23,00,31,4.30
2011,04,23,00,32,4.30
2011,04,23,00,33,4.30
2011,04,23,00,34,4.30
2011,04,23,00,35,4.20
2011,04,23,00,36,4.20
2011,04,23,00,37,4.20
2011,04,23,00,38,4.20
2011,04,23,00,39,4.20
2011,04,23,00,40,4.20
2011,04,23,00,41,4.20
2011,04,23,00,42,4.20
2011,04,23,00,43,4.10
2011,04,23,00,44,4.10
2011,04,23,00,45,4.00
2011,04,23,00,46,4.00
2011,04,23,00,47,4.00
2011,04,23,00,48,4.00
2011,04,23,00,49,4.00
2011,04,23,00,50,4.00
2011,04,23,00,51,4.00
2011,04,23,00,52,4.00
2011,04,23,00,53,4.00
2011,04,23,00,54,4.10
2011,04,23,00,55,4.10
2011,04,23,00,56,4.10
2011,04,23,00,57,4.10
2011,04,23,00,58,4.10
2011,04,23,00,59,4.10
2011,04,23,01,00,4.10
2011,04,23,01,01,4.10
2011,04,23,01,02,4.10
2011,04,23,01,03,4.10
2011,04,23,01,04,4.10
2011,04,23,01,05,4.10
2011,04,23,01,06,4.00
2011,04,23,01,07,4.00
2011,04,23,01,08,4.00
2011,04,23,01,09,4.00
2011,04,23,01,10,4.00
2011,04,23,01,11,4.00
2011,04,23,01,12,4.00
2011,04,23,01,13,4.00
2011,04,23,01,14,4.00
2011,04,23,01,15,4.00
2011,04,23,01,16,3.90
2011,04,23,01,17,3.90
2011,04,23,01,18,3.90
2011,04,23,01,19,3.90
2011,04,23,01,20,3.90
2011,04,23,01,21,3.80
2011,04,23,01,22,3.80
2011,04,23,01,23,3.80
2011,04,23,01,24,3.80
2011,04,23,01,25,3.80
2011,04,23,01,26,3.80
2011,04,23,01,27,3.80
2011,04,23,01,28,3.80
2011,04,23,01,29,3.80
2011,04,23,01,30,3.80
2011,04,23,01,31,3.80
2011,04,23,01,32,3.80
2011,04,23,01,33,3.80
2011,04,23,01,34,3.80
2011,04,23,01,35,3.80
2011,04,23,01,36,3.80
2011,04,23,01,37,3.80
2011,04,23,01,38,3.80
2011,04,23,01,39,3.70
2011,04,23,01,40,3.70
2011,04,23,01,41,3.60
2011,04,23,01,42,3.60
2011,04,23,01,43,3.60
2011,04,23,01,44,3.50
2011,04,23,01,45,3.50
2011,04,23,01,46,3.50
2011,04,23,01,47,3.40
2011,04,23,01,48,3.40
2011,04,23,01,49,3.40
2011,04,23,01,50,3.30
2011,04,23,01,51,3.30
2011,04,23,01,52,3.30
2011,04,23,01,53,3.30
2011,04,23,01,54,3.30
2011,04,23,01,55,3.30
2011,04,23,01,56,3.30
2011,04,23,01,57,3.20
2011,04,23,01,58,3.20
2011,04,23,01,59,3.20
2011,04,23,02,00,3.20
2011,04,23,02,01,3.20
2011,04,23,02,02,3.10
2011,04,23,02,03,3.10
2011,04,23,02,04,3.10
2011,04,23,02,05,3.10
2011,04,23,02,06,3.10
2011,04,23,02,07,3.10
2011,04,23,02,08,3.20
2011,04,23,02,09,3.20
2011,04,23,02,10,3.20
2011,04,23,02,11,3.20
2011,04,23,02,12,3.20
2011,04,23,02,13,3.20
2011,04,23,02,14,3.20
2011,04,23,02,15,3.20
2011,04,23,02,16,3.20
2011,04,23,02,17,3.10
2011,04,23,02,18,3.10
2011,04,23,02,19,3.10
2011,04,23,02,20,3.10
2011,04,23,02,21,3.10
2011,04,23,02,22,3.10
2011,04,23,02,23,3.10
2011,04,23,02,24,3.10
2011,04,23,02,25,3.10
2011,04,23,02,26,3.10
2011,04,23,02,27,3.10
2011,04,23,02,28,3.10
2011,04,23,02,29,3.10
2011,04,23,02,30,3.00
2011,04,23,02,31,2.90
2011,04,23,02,32,2.90
2011,04,23,02,33,2.90
2011,04,23,02,34,2.90
2011,04,23,02,35,2.90
2011,04,23,02,36,2.90
2011,04,23,02,37,2.90
2011,04,23,02,38,2.90
2011,04,23,02,39,2.90
2011,04,23,02,40,2.90
2011,04,23,02,41,2.80
2011,04,23,02,42,2.80
2011,04,23,02,43,2.80
2011,04,23,02,44,2.80
2011,04,23,02,45,2.80
2011,04,23,02,46,2.80
2011,04,23,02,47,2.80
2011,04,23,02,48,2.80
2011,04,23,02,49,2.80
2011,04,23,02,50,2.80
2011,04,23,02,51,2.80
2011,04,23,02,52,2.80
2011,04,23,02,53,2.80
2011,04,23,02,54,2.80
2011,04,23,02,55,2.80
2011,04,23,02,56,2.80
2011,04,23,02,57,2.70
2011,04,23,02,58,2.70
2011,04,23,02,59,2.70
2011,04,23,03,00,2.70
2011,04,23,03,01,2.70
2011,04,23,03,02,2.70
2011,04,23,03,03,2.70
2011,04,23,03,04,2.70
2011,04,23,03,05,2.70
2011,04,23,03,06,2.70
2011,04,23,03,07,2.70
2011,04,23,03,08,2.70
2011,04,23,03,09,2.70
2011,04,23,03,10,2.70
2011,04,23,03,11,2.70
2011,04,23,03,12,2.70
2011,04,23,03,13,2.70
2011,04,23,03,14,2.70
2011,04,23,03,15,2.70
2011,04,23,03,16,2.70
2011,04,23,03,17,2.70
2011,04,23,03,18,2.70
2011,04,23,03,19,2.70
2011,04,23,03,20,2.70
2011,04,23,03,21,2.70
2011,04,23,03,22,2.60
2011,04,23,03,23,2.60
2011,04,23,03,24,2.60
2011,04,23,03,25,2.60
2011,04,23,03,26,2.60
2011,04,23,03,27,2.50
2011,04,23,03,28,2.50
2011,04,23,03,29,2.50
2011,04,23,03,30,2.50
2011,04,23,03,31,2.40
2011,04,23,03,32,2.40
2011,04,23,03,33,2.40
2011,04,23,03,34,2.40
2011,04,23,03,35,2.30
2011,04,23,03,36,2.30
2011,04,23,03,37,2.30
2011,04,23,03,38,2.30
2011,04,23,03,39,2.30
2011,04,23,03,40,2.30
2011,04,23,03,41,2.30
2011,04,23,03,42,2.30
2011,04,23,03,43,2.30
2011,04,23,03,44,2.30
2011,04,23,03,45,2.30
2011,04,23,03,46,2.30
2011,04,23,03,47,2.30
2011,04,23,03,48,2.30
2011,04,23,03,49,2.30
2011,04,23,03,50,2.30
2011,04,23,03,51,2.30
2011,04,23,03,52,2.20
2011,04,23,03,53,2.20
2011,04,23,03,54,2.20
2011,04,23,03,55,2.20
2011,04,23,03,56,2.20
2011,04,23,03,57,2.20
2011,04,23,03,58,2.20
2011,04,23,03,59,2.20
2011,04,23,04,00,2.20
2011,04,23,04,01,2.20
2011,04,23,04,02,2.20
2011,04,23,04,03,2.20
2011,04,23,04,04,2.30
2011,04,23,04,05,2.30
2011,04,23,04,06,2.30
2011,04,23,04,07,2.30
2011,04,23,04,08,2.40
2011,04,23,04,09,2.40
2011,04,23,04,10,2.40
2011,04,23,04,11,2.40
2011,04,23,04,12,2.40
2011,04,23,04,13,2.40
2011,04,23,04,14,2.50
2011,04,23,04,15,2.50
2011,04,23,04,16,2.50
2011,04,23,04,17,2.50
2011,04,23,04,18,2.50
2011,04,23,04,19,2.50
2011,04,23,04,20,2.50
2011,04,23,04,21,2.50
2011,04,23,04,22,2.50
2011,04,23,04,23,2.60
2011,04,23,04,24,2.60
2011,04,23,04,25,2.60
2011,04,23,04,26,2.60
2011,04,23,04,27,2.60
2011,04,23,04,28,2.70
2011,04,23,04,29,2.70
2011,04,23,04,30,2.70
2011,04,23,04,31,2.70
2011,04,23,04,32,2.70
2011,04,23,04,33,2.70
2011,04,23,04,34,2.70
2011,04,23,04,35,2.70
2011,04,23,04,36,2.70
2011,04,23,04,37,2.60
2011,04,23,04,38,2.60
2011,04,23,04,39,2.60
2011,04,23,04,40,2.60
2011,04,23,04,41,2.60
2011,04,23,04,42,2.60
2011,04,23,04,43,2.70
2011,04,23,04,44,2.70
2011,04,23,04,45,2.70
2011,04,23,04,46,2.70
2011,04,23,04,47,2.70
2011,04,23,04,48,2.70
2011,04,23,04,49,2.70
2011,04,23,04,50,2.80
2011,04,23,04,51,2.80
2011,04,23,04,52,2.80
2011,04,23,04,53,2.80
2011,04,23,04,54,2.80
2011,04,23,04,55,2.80
2011,04,23,04,56,2.80
2011,04,23,04,57,2.90
2011,04,23,04,58,2.90
2011,04,23,04,59,2.90
2011,04,23,05,00,2.90
2011,04,23,05,01,2.90
2011,04,23,05,02,2.90
2011,04,23,05,03,2.90
2011,04,23,05,04,2.90
2011,04,23,05,05,3.10
2011,04,23,05,06,3.10
2011,04,23,05,07,3.10
2011,04,23,05,08,3.10
2011,04,23,05,09,3.10
2011,04,23,05,10,3.20
2011,04,23,05,11,3.20
2011,04,23,05,12,3.30
2011,04,23,05,13,3.30
2011,04,23,05,14,3.30
2011,04,23,05,15,3.30
2011,04,23,05,16,3.30
2011,04,23,05,17,3.30
2011,04,23,05,18,3.30
2011,04,23,05,19,3.30
2011,04,23,05,20,3.30
2011,04,23,05,21,3.30
2011,04,23,05,22,3.30
2011,04,23,05,23,3.30
2011,04,23,05,24,3.30
2011,04,23,05,25,3.30
2011,04,23,05,26,3.30
2011,04,23,05,27,3.20
2011,04,23,05,28,3.20
2011,04,23,05,29,3.10
2011,04,23,05,30,3.10
2011,04,23,05,31,3.10
2011,04,23,05,32,3.10
2011,04,23,05,33,3.10
2011,04,23,05,34,2.90
2011,04,23,05,35,2.90
2011,04,23,05,36,2.90
2011,04,23,05,37,2.90
2011,04,23,05,38,2.90
2011,04,23,05,39,2.90
2011,04,23,05,40,2.90
2011,04,23,05,41,2.80
2011,04,23,05,42,2.80
2011,04,23,05,43,2.80
2011,04,23,05,44,2.70
2011,04,23,05,45,2.70
2011,04,23,05,46,2.70
2011,04,23,05,47,2.60
2011,04,23,05,48,2.60
2011,04,23,05,49,2.50
2011,04,23,05,50,2.50
2011,04,23,05,51,2.50
2011,04,23,05,52,2.50
2011,04,23,05,53,2.50
2011,04,23,05,54,2.50
2011,04,23,05,55,2.50
2011,04,23,05,56,2.50
2011,04,23,05,57,2.50
2011,04,23,05,58,2.50
2011,04,23,05,59,2.50
2011,04,23,06,00,2.50
2011,04,23,06,01,2.40
2011,04,23,06,02,2.40
2011,04,23,06,03,2.40
2011,04,23,06,04,2.40
2011,04,23,06,05,2.40
2011,04,23,06,06,2.30
2011,04,23,06,07,2.20
2011,04,23,06,08,2.20
2011,04,23,06,09,2.20
2011,04,23,06,10,2.10
2011,04,23,06,11,2.00
2011,04,23,06,12,2.00
2011,04,23,06,13,2.00
2011,04,23,06,14,1.90
2011,04,23,06,15,1.90
2011,04,23,06,16,1.90
2011,04,23,06,17,2.00
2011,04,23,06,18,2.00
2011,04,23,06,19,1.90
2011,04,23,06,20,1.90
2011,04,23,06,21,2.00
2011,04,23,06,22,2.10
2011,04,23,06,23,2.20
2011,04,23,06,24,2.20
2011,04,23,06,25,2.30
2011,04,23,06,26,2.30
2011,04,23,06,27,2.40
2011,04,23,06,28,2.50
2011,04,23,06,29,2.70
2011,04,23,06,30,2.70
2011,04,23,06,31,2.80
2011,04,23,06,32,2.80
2011,04,23,06,33,2.90
2011,04,23,06,34,2.90
2011,04,23,06,35,3.10
2011,04,23,06,36,3.20
2011,04,23,06,37,3.20
2011,04,23,06,38,3.30
2011,04,23,06,39,3.30
2011,04,23,06,40,3.30
2011,04,23,06,41,3.40
2011,04,23,06,42,3.50
2011,04,23,06,43,3.50
2011,04,23,06,44,3.60
2011,04,23,06,45,3.70
2011,04,23,06,46,3.80
2011,04,23,06,47,3.80
2011,04,23,06,48,3.80
2011,04,23,06,49,3.90
2011,04,23,06,50,4.00
2011,04,23,06,51,4.00
2011,04,23,06,52,4.10
2011,04,23,06,53,4.20
2011,04,23,06,54,4.30
2011,04,23,06,55,4.40
2011,04,23,06,56,4.40
2011,04,23,06,57,4.50
2011,04,23,06,58,4.60
2011,04,23,06,59,4.60
2011,04,23,07,00,4.70
2011,04,23,07,01,4.80
2011,04,23,07,02,4.90
2011,04,23,07,03,5.00
2011,04,23,07,04,5.10
2011,04,23,07,05,5.10
2011,04,23,07,06,5.30
2011,04,23,07,07,5.30
2011,04,23,07,08,5.40
2011,04,23,07,09,5.50
2011,04,23,07,10,5.60
2011,04,23,07,11,5.70
2011,04,23,07,12,5.80
2011,04,23,07,13,5.80
2011,04,23,07,14,5.90
2011,04,23,07,15,6.00
2011,04,23,07,16,6.00
2011,04,23,07,17,6.10
2011,04,23,07,18,6.10
2011,04,23,07,19,6.20
2011,04,23,07,20,6.20
2011,04,23,07,21,6.20
2011,04,23,07,22,6.30
2011,04,23,07,23,6.40
2011,04,23,07,24,6.40
2011,04,23,07,25,6.40
2011,04,23,07,26,6.50
2011,04,23,07,27,6.60
2011,04,23,07,28,6.60
2011,04,23,07,29,6.70
2011,04,23,07,30,6.70
2011,04,23,07,31,6.80
2011,04,23,07,32,6.80
2011,04,23,07,33,6.80
2011,04,23,07,34,6.80
2011,04,23,07,35,6.90
2011,04,23,07,36,6.90
2011,04,23,07,37,7.00
2011,04,23,07,38,7.00
2011,04,23,07,39,7.10
2011,04,23,07,40,7.20
2011,04,23,07,41,7.20
2011,04,23,07,42,7.20
2011,04,23,07,43,7.30
2011,04,23,07,44,7.30
2011,04,23,07,45,7.30
2011,04,23,07,46,7.40
2011,04,23,07,47,7.40
2011,04,23,07,48,7.50
2011,04,23,07,49,7.50
2011,04,23,07,50,7.60
2011,04,23,07,51,7.60
2011,04,23,07,52,7.60
2011,04,23,07,53,7.60
2011,04,23,07,54,7.70
2011,04,23,07,55,7.70
2011,04,23,07,56,7.70
2011,04,23,07,57,7.80
2011,04,23,07,58,7.80
2011,04,23,07,59,7.80
2011,04,23,08,00,7.80
2011,04,23,08,01,7.90
2011,04,23,08,02,7.90
2011,04,23,08,03,8.00
2011,04,23,08,04,8.00
2011,04,23,08,05,8.00
2011,04,23,08,06,8.10
2011,04,23,08,07,8.10
2011,04,23,08,08,8.20
2011,04,23,08,09,8.20
2011,04,23,08,10,8.20
2011,04,23,08,11,8.30
2011,04,23,08,12,8.30
2011,04,23,08,13,8.30
2011,04,23,08,14,8.30
2011,04,23,08,15,8.30
2011,04,23,08,16,8.40
2011,04,23,08,17,8.40
2011,04,23,08,18,8.40
2011,04,23,08,19,8.50
2011,04,23,08,20,8.50
2011,04,23,08,21,8.60
2011,04,23,08,22,8.60
2011,04,23,08,23,8.70
2011,04,23,08,24,8.70
2011,04,23,08,25,8.70
2011,04,23,08,26,8.70
2011,04,23,08,27,8.80
2011,04,23,08,28,8.80
2011,04,23,08,29,8.90
2011,04,23,08,30,8.90
2011,04,23,08,31,8.90
2011,04,23,08,32,9.00
2011,04,23,08,33,9.10
2011,04,23,08,34,9.10
2011,04,23,08,35,9.20
2011,04,23,08,36,9.20
2011,04,23,08,37,9.20
2011,04,23,08,38,9.20
2011,04,23,08,39,9.20
2011,04,23,08,40,9.30
2011,04,23,08,41,9.30
2011,04,23,08,42,9.40
2011,04,23,08,43,9.40
2011,04,23,08,44,9.40
2011,04,23,08,45,9.50
2011,04,23,08,46,9.50
2011,04,23,08,47,9.50
2011,04,23,08,48,9.50
2011,04,23,08,49,9.50
2011,04,23,08,50,9.40
2011,04,23,08,51,9.40
2011,04,23,08,52,9.40
2011,04,23,08,53,9.40
2011,04,23,08,54,9.40
2011,04,23,08,55,9.50
2011,04,23,08,56,9.50
2011,04,23,08,57,9.50
2011,04,23,08,58,9.50
2011,04,23,08,59,9.40
2011,04,23,09,00,9.40
2011,04,23,09,01,9.40
2011,04,23,09,02,9.40
2011,04,23,09,03,9.40
2011,04,23,09,04,9.40
2011,04,23,09,05,9.40
2011,04,23,09,06,9.50
2011,04,23,09,07,9.50
2011,04,23,09,08,9.60
2011,04,23,09,09,9.60
2011,04,23,09,10,9.70
2011,04,23,09,11,9.70
2011,04,23,09,12,9.70
2011,04,23,09,13,9.70
2011,04,23,09,14,9.70
2011,04,23,09,15,9.70
2011,04,23,09,16,9.70
2011,04,23,09,17,9.70
2011,04,23,09,18,9.70
2011,04,23,09,19,9.70
2011,04,23,09,20,9.70
2011,04,23,09,21,9.70
2011,04,23,09,22,9.80
2011,04,23,09,23,9.80
2011,04,23,09,24,9.80
2011,04,23,09,25,9.80
2011,04,23,09,26,9.80
2011,04,23,09,27,9.80
2011,04,23,09,28,9.80
2011,04,23,09,29,9.90
2011,04,23,09,30,9.90
2011,04,23,09,31,9.90
2011,04,23,09,32,9.90
2011,04,23,09,33,9.90
2011,04,23,09,34,10.00
2011,04,23,09,35,10.10
2011,04,23,09,36,10.10
2011,04,23,09,37,10.20
2011,04,23,09,38,10.30
2011,04,23,09,39,10.30
2011,04,23,09,40,10.30
2011,04,23,09,41,10.30
2011,04,23,09,42,10.30
2011,04,23,09,43,10.20
2011,04,23,09,44,10.20
2011,04,23,09,45,10.20
2011,04,23,09,46,10.20
2011,04,23,09,47,10.20
2011,04,23,09,48,10.20
2011,04,23,09,49,10.20
2011,04,23,09,50,10.20
2011,04,23,09,51,10.20
2011,04,23,09,52,10.20
2011,04,23,09,53,10.20
2011,04,23,09,54,10.20
2011,04,23,09,55,10.10
2011,04,23,09,56,10.20
2011,04,23,09,57,10.20
2011,04,23,09,58,10.30
2011,04,23,09,59,10.40
2011,04,23,10,00,10.40
2011,04,23,10,01,10.50
2011,04,23,10,02,10.60
2011,04,23,10,03,10.60
2011,04,23,10,04,10.60
2011,04,23,10,05,10.60
2011,04,23,10,06,10.60
2011,04,23,10,07,10.60
2011,04,23,10,08,10.60
2011,04,23,10,09,10.60
2011,04,23,10,10,10.70
2011,04,23,10,11,10.70
2011,04,23,10,12,10.80
2011,04,23,10,13,10.80
2011,04,23,10,14,10.90
2011,04,23,10,15,10.90
2011,04,23,10,16,10.90
2011,04,23,10,17,10.80
2011,04,23,10,18,10.90
2011,04,23,10,19,10.90
2011,04,23,10,20,11.00
2011,04,23,10,21,11.10
2011,04,23,10,22,11.10
2011,04,23,10,23,11.10
2011,04,23,10,24,11.00
2011,04,23,10,25,10.90
2011,04,23,10,26,10.90
2011,04,23,10,27,10.90
2011,04,23,10,28,10.90
2011,04,23,10,29,10.90
2011,04,23,10,30,10.90
2011,04,23,10,31,10.90
2011,04,23,10,32,10.90
2011,04,23,10,33,10.90
2011,04,23,10,34,10.90
2011,04,23,10,35,10.90
2011,04,23,10,36,10.90
2011,04,23,10,37,10.90
2011,04,23,10,38,11.00
2011,04,23,10,39,11.10
2011,04,23,10,40,11.20
2011,04,23,10,41,11.30
2011,04,23,10,42,11.40
2011,04,23,10,43,11.40
2011,04,23,10,44,11.40
2011,04,23,10,45,11.40
2011,04,23,10,46,11.40
2011,04,23,10,47,11.40
2011,04,23,10,48,11.40
2011,04,23,10,49,11.40
2011,04,23,10,50,11.50
2011,04,23,10,51,11.50
2011,04,23,10,52,11.60
2011,04,23,10,53,11.60
2011,04,23,10,54,11.70
2011,04,23,10,55,11.80
2011,04,23,10,56,11.80
2011,04,23,10,57,11.80
2011,04,23,10,58,11.80
2011,04,23,10,59,11.90
2011,04,23,11,00,11.90
2011,04,23,11,01,12.00
2011,04,23,11,02,12.10
2011,04,23,11,03,12.10
2011,04,23,11,04,12.10
2011,04,23,11,05,12.10
2011,04,23,11,06,12.10
2011,04,23,11,07,12.10
2011,04,23,11,08,12.00
2011,04,23,11,09,11.90
2011,04,23,11,10,12.00
2011,04,23,11,11,12.10
2011,04,23,11,12,12.10
2011,04,23,11,13,12.10
2011,04,23,11,14,12.20
2011,04,23,11,15,12.20
2011,04,23,11,16,12.20
2011,04,23,11,17,12.20
2011,04,23,11,18,12.10
2011,04,23,11,19,12.10
2011,04,23,11,20,12.10
2011,04,23,11,21,12.00
2011,04,23,11,22,12.00
2011,04,23,11,23,11.90
2011,04,23,11,24,11.90
2011,04,23,11,25,11.90
2011,04,23,11,26,11.90
2011,04,23,11,27,11.90
2011,04,23,11,28,11.90
2011,04,23,11,29,11.90
2011,04,23,11,30,12.00
2011,04,23,11,31,12.10
2011,04,23,11,32,12.20
2011,04,23,11,33,12.20
2011,04,23,11,34,12.30
2011,04,23,11,35,12.30
2011,04,23,11,36,12.20
2011,04,23,11,37,12.30
2011,04,23,11,38,12.30
2011,04,23,11,39,12.20
2011,04,23,11,40,12.30
2011,04,23,11,41,12.30
2011,04,23,11,42,12.20
2011,04,23,11,43,12.10
2011,04,23,11,44,12.10
2011,04,23,11,45,12.10
2011,04,23,11,46,12.20
2011,04,23,11,47,12.30
2011,04,23,11,48,12.50
2011,04,23,11,49,12.50
2011,04,23,11,50,12.50
2011,04,23,11,51,12.50
2011,04,23,11,52,12.60
2011,04,23,11,53,12.60
2011,04,23,11,54,12.60
2011,04,23,11,55,12.60
2011,04,23,11,56,12.60
2011,04,23,11,57,12.60
2011,04,23,11,58,12.60
2011,04,23,11,59,12.50
2011,04,23,12,00,12.50
2011,04,23,12,01,12.50
2011,04,23,12,02,12.50
2011,04,23,12,03,12.50
2011,04,23,12,04,12.60
2011,04,23,12,05,12.70
2011,04,23,12,06,12.70
2011,04,23,12,07,12.80
2011,04,23,12,08,12.80
2011,04,23,12,09,12.80
2011,04,23,12,10,12.80
2011,04,23,12,11,12.90
2011,04,23,12,12,13.00
2011,04,23,12,13,13.00
2011,04,23,12,14,13.10
2011,04,23,12,15,13.10
2011,04,23,12,16,13.10
2011,04,23,12,17,13.10
2011,04,23,12,18,13.10
2011,04,23,12,19,13.20
2011,04,23,12,20,13.20
2011,04,23,12,21,13.20
2011,04,23,12,22,13.20
2011,04,23,12,23,13.20
2011,04,23,12,24,13.20
2011,04,23,12,25,13.20
2011,04,23,12,26,13.20
2011,04,23,12,27,13.20
2011,04,23,12,28,13.20
2011,04,23,12,29,13.20
2011,04,23,12,30,13.20
2011,04,23,12,31,13.30
2011,04,23,12,32,13.30
2011,04,23,12,33,13.30
2011,04,23,12,34,13.30
2011,04,23,12,35,13.40
2011,04,23,12,36,13.50
2011,04,23,12,37,13.50
2011,04,23,12,38,13.50
2011,04,23,12,39,13.60
2011,04,23,12,40,13.60
2011,04,23,12,41,13.70
2011,04,23,12,42,13.70
2011,04,23,12,43,13.70
2011,04,23,12,44,13.50
2011,04,23,12,45,13.50
2011,04,23,12,46,13.40
2011,04,23,12,47,13.40
2011,04,23,12,48,13.40
2011,04,23,12,49,13.50
2011,04,23,12,50,13.50
2011,04,23,12,51,13.50
2011,04,23,12,52,13.50
2011,04,23,12,53,13.50
2011,04,23,12,54,13.60
2011,04,23,12,55,13.70
2011,04,23,12,56,13.70
2011,04,23,12,57,13.70
2011,04,23,12,58,13.70
2011,04,23,12,59,13.80
2011,04,23,13,00,13.90
2011,04,23,13,01,14.00
2011,04,23,13,02,13.90
2011,04,23,13,03,13.90
2011,04,23,13,04,13.90
2011,04,23,13,05,14.00
2011,04,23,13,06,14.00
2011,04,23,13,07,14.00
2011,04,23,13,08,14.00
2011,04,23,13,09,14.00
2011,04,23,13,10,14.00
2011,04,23,13,11,14.00
2011,04,23,13,12,14.10
2011,04,23,13,13,14.20
2011,04,23,13,14,14.20
2011,04,23,13,15,14.30
2011,04,23,13,16,14.30
2011,04,23,13,17,14.40
2011,04,23,13,18,14.30
2011,04,23,13,19,14.30
2011,04,23,13,20,14.30
2011,04,23,13,21,14.40
2011,04,23,13,22,14.50
2011,04,23,13,23,14.50
2011,04,23,13,24,14.40
2011,04,23,13,25,14.40
2011,04,23,13,26,14.30
2011,04,23,13,27,14.40
2011,04,23,13,28,14.40
2011,04,23,13,29,14.40
2011,04,23,13,30,14.40
2011,04,23,13,31,14.50
2011,04,23,13,32,14.50
2011,04,23,13,33,14.50
2011,04,23,13,34,14.60
2011,04,23,13,35,14.60
2011,04,23,13,36,14.70
2011,04,23,13,37,14.70
2011,04,23,13,38,14.80
2011,04,23,13,39,14.80
2011,04,23,13,40,14.80
2011,04,23,13,41,14.80
2011,04,23,13,42,14.80
2011,04,23,13,43,14.90
2011,04,23,13,44,14.90
2011,04,23,13,45,14.90
2011,04,23,13,46,15.00
2011,04,23,13,47,14.90
2011,04,23,13,48,15.00
2011,04,23,13,49,15.10
2011,04,23,13,50,15.20
2011,04,23,13,51,15.30
2011,04,23,13,52,15.30
2011,04,23,13,53,15.30
2011,04,23,13,54,15.20
2011,04,23,13,55,15.20
2011,04,23,13,56,15.20
2011,04,23,13,57,15.20
2011,04,23,13,58,15.30
2011,04,23,13,59,15.20
2011,04,23,14,00,15.20
2011,04,23,14,01,15.10
2011,04,23,14,02,15.10
2011,04,23,14,03,15.20
2011,04,23,14,04,15.20
2011,04,23,14,05,15.30
2011,04,23,14,06,15.30
2011,04,23,14,07,15.30
2011,04,23,14,08,15.30
2011,04,23,14,09,15.30
2011,04,23,14,10,15.30
2011,04,23,14,11,15.40
2011,04,23,14,12,15.40
2011,04,23,14,13,15.40
2011,04,23,14,14,15.40
2011,04,23,14,15,15.40
2011,04,23,14,16,15.50
2011,04,23,14,17,15.50
2011,04,23,14,18,15.60
2011,04,23,14,19,15.70
2011,04,23,14,20,15.80
2011,04,23,14,21,15.80
2011,04,23,14,22,15.90
2011,04,23,14,23,15.90
2011,04,23,14,24,16.00
2011,04,23,14,25,16.10
2011,04,23,14,26,16.00
2011,04,23,14,27,16.00
2011,04,23,14,28,16.10
2011,04,23,14,29,16.10
2011,04,23,14,30,16.10
2011,04,23,14,31,16.10
2011,04,23,14,32,16.10
2011,04,23,14,33,16.10
2011,04,23,14,34,16.10
2011,04,23,14,35,16.10
2011,04,23,14,36,16.20
2011,04,23,14,37,16.20
2011,04,23,14,38,16.20
2011,04,23,14,39,16.20
2011,04,23,14,40,16.20
2011,04,23,14,41,16.20
2011,04,23,14,42,16.10
2011,04,23,14,43,16.10
2011,04,23,14,44,16.10
2011,04,23,14,45,16.20
2011,04,23,14,46,16.20
2011,04,23,14,47,16.10
2011,04,23,14,48,16.00
2011,04,23,14,49,15.90
2011,04,23,14,50,15.80
2011,04,23,14,51,15.80
2011,04,23,14,52,15.80
2011,04,23,14,53,15.80
2011,04,23,14,54,15.80
2011,04,23,14,55,15.80
2011,04,23,14,56,15.80
2011,04,23,14,57,15.70
2011,04,23,14,58,15.70
2011,04,23,14,59,15.70
2011,04,23,15,00,15.70
2011,04,23,15,01,15.70
2011,04,23,15,02,15.80
2011,04,23,15,03,15.90
2011,04,23,15,04,16.00
2011,04,23,15,05,16.10
2011,04,23,15,06,16.30
2011,04,23,15,07,16.40
2011,04,23,15,08,16.40
2011,04,23,15,09,16.40
2011,04,23,15,10,16.40
2011,04,23,15,11,16.50
2011,04,23,15,12,16.60
2011,04,23,15,13,16.70
2011,04,23,15,14,16.60
2011,04,23,15,15,16.60
2011,04,23,15,16,16.60
2011,04,23,15,17,16.50
2011,04,23,15,18,16.40
2011,04,23,15,19,16.40
2011,04,23,15,20,16.40
2011,04,23,15,21,16.40
2011,04,23,15,22,16.40
2011,04,23,15,23,16.40
2011,04,23,15,24,16.40
2011,04,23,15,25,16.50
2011,04,23,15,26,16.50
2011,04,23,15,27,16.40
2011,04,23,15,28,16.10
2011,04,23,15,29,15.90
2011,04,23,15,30,15.70
2011,04,23,15,31,15.50
2011,04,23,15,32,15.50
2011,04,23,15,33,15.50
2011,04,23,15,34,15.60
2011,04,23,15,35,15.80
2011,04,23,15,36,15.90
2011,04,23,15,37,16.10
2011,04,23,15,38,16.30
2011,04,23,15,39,16.40
2011,04,23,15,40,16.50
2011,04,23,15,41,16.70
2011,04,23,15,42,16.70
2011,04,23,15,43,16.80
2011,04,23,15,44,16.80
2011,04,23,15,45,16.90
2011,04,23,15,46,17.00
2011,04,23,15,47,17.00
2011,04,23,15,48,17.00
2011,04,23,15,49,17.00
2011,04,23,15,50,16.90
2011,04,23,15,51,16.90
2011,04,23,15,52,16.90
2011,04,23,15,53,16.80
2011,04,23,15,54,16.70
2011,04,23,15,55,16.70
2011,04,23,15,56,16.80
2011,04,23,15,57,16.90
2011,04,23,15,58,17.00
2011,04,23,15,59,17.00
2011,04,23,16,00,17.10
2011,04,23,16,01,17.10
2011,04,23,16,02,17.30
2011,04,23,16,03,17.20
2011,04,23,16,04,17.20
2011,04,23,16,05,17.10
2011,04,23,16,06,17.10
2011,04,23,16,07,17.00
2011,04,23,16,08,16.90
2011,04,23,16,09,16.80
2011,04,23,16,10,16.70
2011,04,23,16,11,16.70
2011,04,23,16,12,16.70
2011,04,23,16,13,16.60
2011,04,23,16,14,16.60
2011,04,23,16,15,16.60
2011,04,23,16,16,16.60
2011,04,23,16,17,16.60
2011,04,23,16,18,16.60
2011,04,23,16,19,16.60
2011,04,23,16,20,16.60
2011,04,23,16,21,16.70
2011,04,23,16,22,16.70
2011,04,23,16,23,16.80
2011,04,23,16,24,16.90
2011,04,23,16,25,17.00
2011,04,23,16,26,17.00
2011,04,23,16,27,17.10
2011,04,23,16,28,17.20
2011,04,23,16,29,17.30
2011,04,23,16,30,17.30
2011,04,23,16,31,17.40
2011,04,23,16,32,17.40
2011,04,23,16,33,17.10
2011,04,23,16,34,16.70
2011,04,23,16,35,16.60
2011,04,23,16,36,16.40
2011,04,23,16,37,16.40
2011,04,23,16,38,16.40
2011,04,23,16,39,16.30
2011,04,23,16,40,16.10
2011,04,23,16,41,16.10
2011,04,23,16,42,16.10
2011,04,23,16,43,16.10
2011,04,23,16,44,16.20
2011,04,23,16,45,16.20
2011,04,23,16,46,16.20
2011,04,23,16,47,16.10
2011,04,23,16,48,16.10
2011,04,23,16,49,16.10
2011,04,23,16,50,16.20
2011,04,23,16,51,16.30
2011,04,23,16,52,16.40
2011,04,23,16,53,16.40
2011,04,23,16,54,16.40
2011,04,23,16,55,16.50
2011,04,23,16,56,16.50
2011,04,23,16,57,16.40
2011,04,23,16,58,16.40
2011,04,23,16,59,16.40
2011,04,23,17,00,16.40
2011,04,23,17,01,16.40
2011,04,23,17,02,16.30
2011,04,23,17,03,16.30
2011,04,23,17,04,16.30
2011,04,23,17,05,16.30
2011,04,23,17,06,16.40
2011,04,23,17,07,16.40
2011,04,23,17,08,16.50
2011,04,23,17,09,16.60
2011,04,23,17,10,16.60
2011,04,23,17,11,16.70
2011,04,23,17,12,16.80
2011,04,23,17,13,16.80
2011,04,23,17,14,16.90
2011,04,23,17,15,16.90
2011,04,23,17,16,16.90
2011,04,23,17,17,16.90
2011,04,23,17,18,16.90
2011,04,23,17,19,17.00
2011,04,23,17,20,17.10
2011,04,23,17,21,17.30
2011,04,23,17,22,17.40
2011,04,23,17,23,17.40
2011,04,23,17,24,17.40
2011,04,23,17,25,17.40
2011,04,23,17,26,17.40
2011,04,23,17,27,17.40
2011,04,23,17,28,17.40
2011,04,23,17,29,17.30
2011,04,23,17,30,17.30
2011,04,23,17,31,17.20
2011,04,23,17,32,17.00
2011,04,23,17,33,16.90
2011,04,23,17,34,16.90
2011,04,23,17,35,16.90
2011,04,23,17,36,16.80
2011,04,23,17,37,16.70
2011,04,23,17,38,16.60
2011,04,23,17,39,16.50
2011,04,23,17,40,16.40
2011,04,23,17,41,16.30
2011,04,23,17,42,16.10
2011,04,23,17,43,16.00
2011,04,23,17,44,15.80